period_start,C,m1,H,J0,J1,J2,J3,J4,J5,JA,JB,JC,JD,JJ,JK,JN,#
2013-07-19 00:00:06,0.23,0.34,0.00,30.09,32.27,34.32,5.90,32.46,1011.43,2036.99,3293.52,3224.05,3509.26,351.52,316.14,4.52,0000 0000 0000 0000 000000
2013-07-19 00:01:06,0.17,0.34,0.00,30.11,32.27,34.27,5.64,31.88,1011.39,2036.98,3293.16,3223.60,3509.04,349.62,314.40,4.53,0000 0000 0000 0000 000000
2013-07-19 00:02:06,0.17,0.34,0.00,30.08,32.27,34.30,5.82,31.92,1011.44,2036.99,3292.70,3223.25,3508.61,350.97,315.70,4.53,0000 0000 0000 0000 000000
2013-07-19 00:03:06,0.18,0.34,0.00,30.05,32.27,34.32,5.81,32.79,1011.42,2036.98,3292.26,3223.08,3508.22,350.41,315.19,4.54,0000 0000 0000 0000 000000
2013-07-19 00:04:07,0.13,0.34,0.00,30.05,32.27,34.31,5.87,32.96,1011.47,2036.99,3292.08,3222.99,3508.08,350.69,315.45,4.54,0000 0000 0000 0000 000000
2013-07-19 00:05:07,0.05,0.34,0.00,30.06,32.27,34.28,5.74,32.58,1011.51,2036.98,3291.90,3222.90,3508.02,350.21,315.31,4.55,0000 0000 0000 0000 000000
2013-07-19 00:06:07,0.05,0.35,0.00,30.09,32.27,34.30,5.77,32.29,1011.57,2036.99,3291.58,3222.82,3507.98,348.99,313.75,4.56,0000 0000 0000 0000 000000
2013-07-19 00:07:08,0.08,0.35,0.00,30.08,32.27,34.23,5.90,32.54,1011.61,2036.99,3291.26,3222.65,3507.97,350.31,315.12,4.56,0000 0000 0000 0000 000000
2013-07-19 00:08:08,0.08,0.35,0.00,30.07,32.27,34.24,5.75,32.38,1011.58,2036.99,3291.10,3222.40,3507.89,350.19,315.01,4.57,0000 0000 0000 0000 000000
2013-07-19 00:09:08,0.06,0.35,0.00,30.06,32.27,34.24,5.89,33.00,1011.61,2036.98,3291.04,3222.20,3507.75,349.67,314.57,4.57,0000 0000 0000 0000 000000
2013-07-19 00:10:09,0.06,0.35,0.00,30.04,32.27,34.27,5.77,32.83,1011.63,2036.98,3291.01,3222.15,3507.60,350.13,314.40,4.58,0000 0000 0000 0000 000000
2013-07-19 00:11:09,0.05,0.35,0.00,30.00,32.27,34.29,5.77,32.38,1011.69,2036.99,3291.00,3222.09,3507.49,349.01,314.06,4.58,0000 0000 0000 0000 000000
2013-07-19 00:12:09,0.02,0.35,0.00,29.99,32.27,34.29,5.83,32.92,1011.66,2036.98,3290.99,3222.05,3507.27,350.73,315.69,4.59,0000 0000 0000 0000 000000
2013-07-19 00:13:10,0.02,0.35,0.00,30.00,32.27,34.22,5.80,32.63,1011.64,2036.98,3290.97,3222.01,3507.15,350.04,314.41,4.60,0000 0000 0000 0000 000000
2013-07-19 00:14:10,0.02,0.35,0.00,30.01,32.27,34.23,6.04,33.21,1011.63,2036.97,3290.94,3222.01,3507.10,351.16,315.67,4.60,0000 0000 0000 0000 000000
2013-07-19 00:15:10,0.01,0.35,0.00,30.01,32.27,34.28,5.77,32.71,1011.64,2036.98,3290.90,3222.03,3507.07,349.66,314.57,4.61,0000 0000 0000 0000 000000
2013-07-19 00:16:10,0.02,0.35,0.00,30.05,32.27,34.31,6.08,33.13,1011.65,2036.99,3290.79,3222.01,3507.04,350.62,315.51,4.61,0000 0000 0000 0000 000000
2013-07-19 00:17:11,0.03,0.35,0.00,30.05,32.27,34.30,5.66,32.71,1011.63,2036.99,3290.64,3222.00,3507.02,350.17,315.04,4.62,0000 0000 0000 0000 000000
2013-07-19 00:18:11,0.02,0.35,0.00,30.02,32.27,34.21,5.97,32.92,1011.68,2036.99,3290.50,3222.00,3507.00,351.05,315.87,4.63,0000 0000 0000 0000 000000
2013-07-19 00:19:11,0.01,0.35,0.00,30.02,32.26,34.27,5.82,32.54,1011.68,2036.99,3290.52,3222.00,3507.01,350.74,315.82,4.63,0000 0000 0000 0000 000000
2013-07-19 00:20:12,-0.00,0.35,0.00,30.03,32.27,34.25,5.83,33.00,1011.62,2036.99,3290.50,3222.00,3507.03,350.16,315.05,4.64,0000 0000 0000 0000 000000
2013-07-19 00:21:12,0.01,0.35,0.00,30.04,32.27,34.23,5.98,32.96,1011.59,2036.99,3290.28,3222.00,3507.01,351.21,315.39,4.64,0000 0000 0000 0000 000000
2013-07-19 00:22:12,0.02,0.35,0.00,30.03,32.26,34.28,6.02,33.33,1011.66,2036.99,3290.24,3222.00,3507.01,350.89,315.25,4.65,0000 0000 0000 0000 000000
2013-07-19 00:23:12,0.01,0.35,0.00,30.03,32.26,34.28,5.94,32.96,1011.66,2036.99,3290.24,3222.00,3507.01,350.57,315.10,4.65,0000 0000 0000 0000 000000
2013-07-19 00:24:13,0.00,0.35,0.00,30.04,32.26,34.31,5.79,32.67,1011.70,2036.99,3290.20,3222.00,3507.00,350.52,315.02,4.66,0000 0000 0000 0000 000000
2013-07-19 00:25:13,0.01,0.35,0.00,30.05,32.26,34.28,5.80,32.42,1011.67,2036.99,3290.10,3222.00,3507.00,350.24,315.23,4.67,0000 0000 0000 0000 000000
2013-07-19 00:26:13,0.01,0.35,0.00,30.04,32.26,34.33,5.80,32.79,1011.67,2036.99,3290.09,3222.00,3507.00,348.41,313.47,4.67,0000 0000 0000 0000 000000
2013-07-19 00:27:14,0.00,0.35,0.00,30.05,32.25,34.30,5.89,32.50,1011.69,2036.99,3290.10,3222.00,3507.00,350.32,315.44,4.68,0000 0000 0000 0000 000000
2013-07-19 00:28:14,-0.01,0.35,0.00,30.09,32.25,34.26,5.77,32.71,1011.71,2036.99,3290.12,3222.00,3507.00,349.93,314.44,4.68,0000 0000 0000 0000 000000
2013-07-19 00:29:14,0.00,0.35,0.00,30.06,32.25,34.26,5.83,32.63,1011.72,2036.99,3290.07,3222.00,3507.00,350.80,315.66,4.69,0000 0000 0000 0000 000000
2013-07-19 00:30:14,0.01,0.35,0.00,30.08,32.25,34.27,5.77,32.63,1011.73,2036.99,3290.04,3222.00,3507.00,349.20,314.17,4.70,0000 0000 0000 0000 000000
2013-07-19 00:31:15,0.00,0.35,0.00,30.06,32.25,34.29,5.86,32.63,1011.73,2036.99,3290.03,3222.00,3507.00,350.09,315.10,4.70,0000 0000 0000 0000 000000
2013-07-19 00:32:15,0.00,0.35,0.00,30.02,32.25,34.34,5.74,32.71,1011.73,2036.99,3290.05,3222.00,3507.00,349.91,314.96,4.71,0000 0000 0000 0000 000000
2013-07-19 00:33:15,0.00,0.35,0.00,30.06,32.25,34.33,5.94,32.67,1011.73,2036.99,3290.03,3222.00,3507.00,348.62,313.90,4.71,0000 0000 0000 0000 000000
2013-07-19 00:34:15,0.00,0.35,0.00,30.09,32.25,34.32,5.81,32.75,1011.73,2036.99,3290.01,3221.99,3507.00,349.92,315.14,4.72,0000 0000 0000 0000 000000
2013-07-19 00:35:16,0.00,0.35,0.00,30.09,32.25,34.34,6.02,33.29,1011.73,2036.99,3290.00,3221.99,3507.00,351.62,316.33,4.72,0000 0000 0000 0000 000000
2013-07-19 00:36:16,0.00,0.35,0.00,30.09,32.25,34.28,5.83,32.58,1011.73,2036.99,3290.00,3221.99,3507.00,349.31,314.25,4.73,0000 0000 0000 0000 000000
2013-07-19 00:37:16,0.00,0.35,0.00,30.06,32.25,34.21,6.02,32.75,1011.73,2036.99,3290.00,3221.98,3506.99,349.55,314.49,4.74,0000 0000 0000 0000 000000
2013-07-19 00:38:16,0.00,0.35,0.00,30.05,32.25,34.31,5.81,32.88,1011.73,2036.99,3290.00,3221.99,3506.98,350.13,315.03,4.74,0000 0000 0000 0000 000000
2013-07-19 00:39:17,0.00,0.35,0.00,30.05,32.25,34.34,5.70,32.71,1011.73,2036.99,3290.00,3221.98,3506.99,349.94,314.63,4.75,0000 0000 0000 0000 000000
2013-07-19 00:40:17,0.00,0.35,0.00,30.08,32.25,34.37,5.72,32.54,1011.73,2036.99,3290.00,3221.97,3506.98,349.00,314.40,4.75,0000 0000 0000 0000 000000
2013-07-19 00:41:17,0.00,0.35,0.00,30.08,32.25,34.38,5.81,32.71,1011.73,2036.99,3290.00,3221.97,3506.92,348.99,313.98,4.76,0000 0000 0000 0000 000000
2013-07-19 00:42:17,0.01,0.35,0.00,30.11,32.25,34.33,5.88,32.42,1011.73,2036.99,3290.00,3221.94,3506.92,350.78,314.91,4.77,0000 0000 0000 0000 000000
2013-07-19 00:43:18,0.00,0.35,0.00,30.10,32.25,34.33,5.74,32.33,1011.73,2036.99,3290.00,3221.93,3506.95,350.01,314.91,4.77,0000 0000 0000 0000 000000
2013-07-19 00:44:18,0.00,0.35,0.00,30.10,32.25,34.33,5.69,32.75,1011.74,2036.99,3290.00,3221.93,3506.93,349.32,314.69,4.78,0000 0000 0000 0000 000000
2013-07-19 00:45:18,0.00,0.35,0.00,30.10,32.25,34.27,5.73,32.25,1011.74,2036.99,3290.00,3221.92,3506.90,349.48,314.79,4.78,0000 0000 0000 0000 000000
2013-07-19 00:46:18,-0.01,0.35,0.00,30.11,32.25,34.24,5.85,32.92,1011.74,2036.99,3290.00,3221.96,3506.90,350.79,315.57,4.79,0000 0000 0000 0000 000000
2013-07-19 00:47:19,-0.00,0.35,0.00,30.10,32.25,34.28,5.64,32.13,1011.74,2036.99,3290.00,3221.98,3506.94,348.95,314.46,4.80,0000 0000 0000 0000 000000
2013-07-19 00:48:19,0.00,0.35,0.00,30.07,32.25,34.25,5.81,33.00,1011.75,2036.99,3289.99,3221.98,3506.95,350.70,315.16,4.80,0000 0000 0000 0000 000000
2013-07-19 00:49:19,0.00,0.35,0.00,30.09,32.25,34.32,5.89,32.79,1011.74,2036.99,3289.98,3221.95,3506.96,349.68,314.50,4.81,0000 0000 0000 0000 000000
2013-07-19 00:50:20,0.00,0.35,0.00,30.12,32.25,34.34,5.87,33.04,1011.73,2036.99,3289.98,3221.96,3506.95,350.47,314.43,4.81,0000 0000 0000 0000 000000
2013-07-19 00:51:20,0.01,0.35,0.00,30.11,32.25,34.34,5.80,32.88,1011.75,2036.99,3289.97,3221.91,3506.90,349.25,314.69,4.82,0000 0000 0000 0000 000000
2013-07-19 00:52:20,0.00,0.35,0.00,30.11,32.25,34.27,5.98,33.21,1011.74,2036.99,3289.98,3221.95,3506.92,351.38,315.34,4.82,0000 0000 0000 0000 000000
2013-07-19 00:53:20,-0.01,0.35,0.00,30.10,32.25,34.30,5.67,32.13,1011.75,2036.99,3289.97,3221.94,3506.90,349.13,314.49,4.83,0000 0000 0000 0000 000000
2013-07-19 00:54:20,0.00,0.35,0.00,30.08,32.25,34.30,5.58,32.21,1011.75,2036.99,3289.93,3221.88,3506.89,349.78,314.31,4.84,0000 0000 0000 0000 000000
2013-07-19 00:55:21,0.01,0.35,0.00,30.05,32.25,34.26,5.66,33.08,1011.76,2036.99,3289.94,3221.91,3506.87,349.57,314.53,4.84,0000 0000 0000 0000 000000
2013-07-19 00:56:21,0.00,0.35,0.00,30.08,32.25,34.27,5.81,31.67,1011.76,2036.99,3289.94,3221.91,3506.86,350.35,315.18,4.85,0000 0000 0000 0000 000000
2013-07-19 00:57:21,0.00,0.35,0.00,30.14,32.25,34.31,5.82,32.63,1011.75,2036.99,3289.92,3221.92,3506.87,350.47,315.25,4.85,0000 0000 0000 0000 000000
2013-07-19 00:58:22,0.01,0.35,0.00,30.16,32.25,34.32,5.77,32.33,1011.75,2036.99,3289.88,3221.91,3506.76,350.04,314.84,4.86,0000 0000 0000 0000 000000
2013-07-19 00:59:22,0.01,0.35,0.00,30.09,32.25,34.40,5.67,32.75,1011.75,2036.99,3289.85,3221.86,3506.69,348.08,313.15,4.87,0000 0000 0000 0000 000000
2013-07-19 01:00:22,0.02,0.35,0.00,30.03,32.25,34.41,5.92,32.71,1011.75,2036.99,3289.80,3221.85,3506.51,351.48,316.25,4.87,0000 0000 0000 0000 000000
2013-07-19 01:01:22,0.02,0.35,0.00,30.00,32.25,34.38,5.82,32.67,1011.75,2036.98,3289.82,3221.86,3506.47,349.98,315.22,4.88,0000 0000 0000 0000 000000
2013-07-19 01:02:23,-0.00,0.35,0.00,29.99,32.25,34.38,5.63,32.38,1011.78,2036.99,3289.75,3221.88,3506.51,348.91,314.02,4.88,0000 0000 0000 0000 000000
2013-07-19 01:03:23,0.02,0.35,0.00,29.99,32.25,34.36,5.72,32.50,1011.76,2036.99,3289.69,3221.83,3506.34,350.16,315.13,4.89,0000 0000 0000 0000 000000
2013-07-19 01:04:23,0.03,0.35,0.00,30.03,32.25,34.38,5.89,32.92,1011.76,2036.98,3289.59,3221.72,3506.24,350.02,314.96,4.90,0000 0000 0000 0000 000000
2013-07-19 01:05:24,0.05,0.35,0.00,30.10,32.25,34.32,5.73,32.63,1011.80,2036.99,3289.44,3221.61,3506.16,349.86,314.76,4.90,0000 0000 0000 0000 000000
2013-07-19 01:06:24,0.07,0.35,0.00,30.14,32.25,34.30,5.99,33.00,1011.77,2036.99,3289.21,3221.30,3506.08,350.76,315.52,4.91,0000 0000 0000 0000 000000
2013-07-19 01:07:24,0.08,0.35,0.00,30.15,32.26,34.35,5.69,32.67,1011.78,2036.99,3289.09,3221.17,3506.04,348.88,313.81,4.91,0000 0000 0000 0000 000000
2013-07-19 01:08:24,0.05,0.35,0.00,30.13,32.26,34.35,5.64,32.21,1011.75,2036.99,3289.08,3221.14,3506.02,350.03,314.89,4.92,0000 0000 0000 0000 000000
2013-07-19 01:09:24,0.01,0.35,0.00,30.10,32.26,34.34,5.69,32.08,1011.73,2036.99,3289.05,3221.08,3506.01,350.04,314.64,4.92,0000 0000 0000 0000 000000
2013-07-19 01:10:25,0.01,0.35,0.00,30.03,32.26,34.30,5.66,32.50,1011.77,2036.99,3289.03,3221.09,3506.00,350.28,315.22,4.93,0000 0000 0000 0000 000000
2013-07-19 01:11:25,0.01,0.35,0.00,30.08,32.26,34.29,5.84,32.79,1011.77,2036.99,3289.00,3221.11,3506.00,350.83,315.88,4.94,0000 0000 0000 0000 000000
2013-07-19 01:12:25,0.01,0.35,0.00,30.11,32.27,34.27,5.78,32.46,1011.77,2036.99,3289.00,3221.05,3506.00,351.05,316.01,4.94,0000 0000 0000 0000 000000
2013-07-19 01:13:25,0.00,0.35,0.00,30.10,32.27,34.28,5.83,32.67,1011.80,2036.98,3289.00,3221.03,3506.00,350.00,314.89,4.95,0000 0000 0000 0000 000000
2013-07-19 01:14:26,0.01,0.35,0.00,30.10,32.27,34.30,5.61,31.88,1011.88,2036.99,3289.00,3221.01,3506.00,349.10,314.10,4.95,0000 0000 0000 0000 000000
2013-07-19 01:15:26,0.00,0.35,0.00,30.12,32.27,34.30,5.65,32.13,1011.95,2036.99,3289.00,3221.00,3506.00,348.09,313.18,4.96,0000 0000 0000 0000 000000
2013-07-19 01:16:26,0.00,0.35,0.00,30.08,32.27,34.27,5.77,32.25,1012.00,2036.99,3289.00,3221.00,3505.99,349.15,314.20,4.97,0000 0000 0000 0000 000000
2013-07-19 01:17:26,0.00,0.35,0.00,30.09,32.27,34.33,5.73,32.29,1012.05,2036.99,3289.00,3221.01,3505.97,348.94,314.02,4.97,0000 0000 0000 0000 000000
2013-07-19 01:18:26,0.00,0.35,0.00,30.11,32.27,34.30,5.75,31.75,1012.09,2036.97,3289.00,3221.00,3505.96,349.52,314.53,4.98,0000 0000 0000 0000 000000
2013-07-19 01:19:27,0.00,0.35,0.00,30.13,32.27,34.23,5.80,32.63,1012.03,2036.98,3289.00,3221.00,3505.98,348.93,314.37,4.98,0000 0000 0000 0000 000000
2013-07-19 01:20:27,0.00,0.35,0.00,30.08,32.27,34.31,5.75,32.75,1012.06,2036.98,3289.00,3221.00,3505.97,348.98,314.51,4.99,0000 0000 0000 0000 000000
2013-07-19 01:21:27,0.01,0.35,0.00,30.11,32.27,34.35,5.88,32.88,1012.07,2036.99,3289.00,3221.00,3505.97,350.91,315.79,4.99,0000 0000 0000 0000 000000
2013-07-19 01:22:27,0.00,0.35,0.00,30.11,32.27,34.34,5.78,32.33,1012.08,2036.99,3289.00,3221.00,3505.93,349.86,315.39,5.00,0000 0000 0000 0000 000000
2013-07-19 01:23:27,0.00,0.35,0.00,30.12,32.27,34.30,5.67,31.79,1012.12,2036.99,3289.00,3221.00,3505.93,348.79,314.50,5.01,0000 0000 0000 0000 000000
2013-07-19 01:24:27,0.00,0.35,0.00,30.14,32.27,34.29,5.89,32.46,1012.09,2036.99,3289.00,3221.00,3505.97,350.70,315.61,5.01,0000 0000 0000 0000 000000
2013-07-19 01:25:27,0.00,0.35,0.00,30.12,32.27,34.27,5.77,32.25,1012.11,2036.98,3289.00,3221.00,3505.96,349.48,314.83,5.02,0000 0000 0000 0000 000000
2013-07-19 01:26:28,-0.01,0.35,0.00,30.18,32.27,34.31,5.77,32.25,1012.18,2036.97,3289.01,3221.00,3505.80,349.25,314.18,5.02,0000 0000 0000 0000 000000
2013-07-19 01:27:28,0.02,0.35,0.00,30.15,32.27,34.28,5.82,32.04,1012.16,2036.95,3289.04,3221.00,3505.51,350.14,315.44,5.03,0000 0000 0000 0000 000000
2013-07-19 01:28:28,0.00,0.35,0.00,30.13,32.27,34.26,5.67,32.00,1012.20,2036.92,3289.02,3220.99,3505.53,349.72,314.86,5.04,0000 0000 0000 0000 000000
2013-07-19 01:29:28,-0.02,0.35,0.00,30.14,32.27,34.28,5.93,33.00,1012.20,2036.88,3289.02,3220.99,3505.52,349.41,314.44,5.04,0000 0000 0000 0000 000000
2013-07-19 01:30:29,-0.06,0.35,0.00,30.14,32.27,34.24,5.74,31.79,1012.22,2036.68,3289.03,3220.99,3505.33,350.34,315.31,5.05,0000 0000 0000 0000 000000
2013-07-19 01:31:29,-0.07,0.35,0.00,30.13,32.27,34.26,5.92,32.25,1012.20,2036.69,3289.02,3220.99,3505.45,350.40,315.33,5.05,0000 0000 0000 0000 000000
2013-07-19 01:32:29,-0.04,0.35,0.00,30.14,32.27,34.28,5.67,32.04,1012.22,2036.74,3289.01,3220.99,3505.57,349.32,314.37,5.06,0000 0000 0000 0000 000000
2013-07-19 01:33:29,0.04,0.35,0.00,30.16,32.27,34.30,5.75,32.42,1012.21,2036.81,3289.00,3220.99,3505.60,348.72,314.37,5.06,0000 0000 0000 0000 000000
2013-07-19 01:34:30,0.04,0.35,0.00,30.19,32.27,34.31,5.96,32.63,1012.22,2036.88,3289.00,3220.99,3505.61,351.14,315.58,5.07,0000 0000 0000 0000 000000
2013-07-19 01:35:30,0.03,0.35,0.00,30.18,32.27,34.26,5.78,32.08,1012.22,2036.88,3289.00,3220.99,3505.65,350.86,316.09,5.08,0000 0000 0000 0000 000000
2013-07-19 01:36:30,0.01,0.35,0.00,30.16,32.27,34.28,5.80,32.13,1012.22,2036.84,3289.00,3220.99,3505.53,349.68,314.44,5.08,0000 0000 0000 0000 000000
2013-07-19 01:37:30,-0.06,0.35,0.00,30.12,32.27,34.29,5.69,32.58,1012.22,2036.62,3289.00,3220.99,3505.29,350.46,315.40,5.09,0000 0000 0000 0000 000000
2013-07-19 01:38:30,-0.12,0.35,0.00,30.16,32.27,34.29,5.70,32.21,1012.22,2036.52,3288.99,3220.98,3505.15,349.98,314.94,5.09,0000 0000 0000 0000 000000
2013-07-19 01:39:31,-0.05,0.35,0.00,30.19,32.27,34.34,5.73,32.13,1012.22,2036.52,3288.96,3220.99,3505.07,349.45,314.42,5.10,0000 0000 0000 0000 000000
2013-07-19 01:40:31,0.02,0.35,0.00,30.23,32.27,34.40,5.73,32.46,1012.22,2036.59,3288.98,3220.98,3505.05,349.01,313.99,5.11,0000 0000 0000 0000 000000
2013-07-19 01:41:31,0.06,0.35,0.00,30.21,32.27,34.34,5.86,32.79,1012.22,2036.58,3288.99,3220.98,3505.09,350.61,315.23,5.11,0000 0000 0000 0000 000000
2013-07-19 01:42:31,-0.05,0.35,0.00,30.18,32.27,34.33,5.75,32.17,1012.23,2036.55,3288.98,3220.97,3505.08,349.62,314.59,5.12,0000 0000 0000 0000 000000
2013-07-19 01:43:31,-0.00,0.35,0.00,30.20,32.28,34.34,5.92,33.25,1012.24,2036.44,3288.92,3220.95,3505.05,349.82,314.75,5.12,0000 0000 0000 0000 000000
2013-07-19 01:44:32,-0.07,0.35,0.00,30.18,32.28,34.34,5.85,32.75,1012.23,2036.42,3288.89,3220.94,3505.02,350.25,314.49,5.13,0000 0000 0000 0000 000000
2013-07-19 01:45:32,0.00,0.35,0.00,30.22,32.27,34.35,5.82,32.13,1012.22,2036.42,3288.85,3220.95,3505.02,350.42,314.78,5.14,0000 0000 0000 0000 000000
2013-07-19 01:46:32,0.00,0.35,0.00,30.22,32.27,34.33,5.62,31.54,1012.22,2036.44,3288.91,3220.96,3505.04,348.86,313.67,5.14,0000 0000 0000 0000 000000
2013-07-19 01:47:32,0.02,0.35,0.00,30.20,32.27,34.36,5.82,32.25,1012.24,2036.39,3288.76,3220.91,3505.04,350.73,315.61,5.15,0000 0000 0000 0000 000000
2013-07-19 01:48:32,-0.04,0.35,0.00,30.16,32.28,34.33,5.97,33.08,1012.22,2036.37,3288.73,3220.94,3505.03,350.69,315.57,5.15,0000 0000 0000 0000 000000
2013-07-19 01:49:33,0.01,0.35,0.00,30.19,32.28,34.34,5.77,32.38,1012.24,2036.41,3288.62,3220.95,3505.02,349.65,314.61,5.16,0000 0000 0000 0000 000000
2013-07-19 01:50:33,0.05,0.35,0.00,30.14,32.28,34.32,5.75,32.08,1012.24,2036.54,3288.59,3220.95,3505.01,350.63,315.87,5.16,0000 0000 0000 0000 000000
2013-07-19 01:51:33,0.12,0.35,0.00,30.14,32.28,34.27,5.88,32.58,1012.24,2036.63,3288.64,3220.95,3505.01,350.85,315.74,5.17,0000 0000 0000 0000 000000
2013-07-19 01:52:34,0.05,0.35,0.00,30.15,32.29,34.26,5.81,31.96,1012.26,2036.52,3288.61,3220.92,3505.01,350.36,315.30,5.18,0000 0000 0000 0000 000000
2013-07-19 01:53:34,-0.10,0.35,0.00,30.16,32.29,34.28,5.78,32.29,1012.26,2036.41,3288.48,3220.86,3505.00,349.31,314.35,5.18,0000 0000 0000 0000 000000
2013-07-19 01:54:34,-0.04,0.35,0.00,30.14,32.30,34.29,5.67,31.71,1012.24,2036.42,3288.54,3220.87,3505.00,349.91,314.90,5.19,0000 0000 0000 0000 000000
2013-07-19 01:55:34,-0.00,0.35,0.00,30.16,32.30,34.26,5.63,31.42,1012.25,2036.37,3288.51,3220.88,3505.02,349.00,314.04,5.19,0000 0000 0000 0000 000000
2013-07-19 01:56:34,-0.02,0.35,0.00,30.17,32.30,34.23,5.81,31.92,1012.24,2036.34,3288.34,3220.85,3505.02,349.62,314.69,5.20,0000 0000 0000 0000 000000
2013-07-19 01:57:35,-0.03,0.35,0.00,30.16,32.30,34.27,5.72,32.00,1012.24,2036.42,3288.29,3220.88,3505.02,349.94,314.96,5.21,0000 0000 0000 0000 000000
2013-07-19 01:58:35,0.11,0.35,0.00,30.20,32.30,34.33,5.73,31.71,1012.25,2036.48,3288.18,3220.68,3505.00,349.86,314.88,5.21,0000 0000 0000 0000 000000
2013-07-19 01:59:35,0.13,0.35,0.00,30.23,32.30,34.27,5.89,32.71,1012.25,2036.42,3288.09,3220.32,3505.00,349.11,314.11,5.22,0000 0000 0000 0000 000000
2013-07-19 02:00:35,0.00,0.35,0.00,30.23,32.30,34.29,5.97,33.04,1012.24,2036.53,3288.05,3220.21,3505.00,349.49,314.42,5.22,0000 0000 0000 0000 000000
2013-07-19 02:01:36,0.14,0.35,0.00,30.21,32.30,34.28,5.92,32.75,1012.25,2036.53,3288.02,3220.12,3504.99,350.85,315.68,5.23,0000 0000 0000 0000 000000
2013-07-19 02:02:36,-0.04,0.35,0.00,30.22,32.30,34.29,5.82,32.33,1012.25,2036.44,3288.00,3220.07,3504.99,349.95,315.18,5.23,0000 0000 0000 0000 000000
2013-07-19 02:03:36,-0.04,0.35,0.00,30.23,32.30,34.33,5.74,32.17,1012.24,2036.35,3288.00,3220.06,3504.98,349.45,314.14,5.24,0000 0000 0000 0000 000000
2013-07-19 02:04:37,-0.06,0.35,0.00,30.24,32.30,34.27,5.89,32.29,1012.23,2036.26,3288.00,3220.04,3504.97,350.60,315.27,5.25,0000 0000 0000 0000 000000
2013-07-19 02:05:37,-0.08,0.35,0.00,30.26,32.30,34.29,5.77,32.25,1012.23,2036.21,3288.00,3220.02,3504.90,350.14,314.97,5.25,0000 0000 0000 0000 000000
2013-07-19 02:06:37,-0.01,0.35,0.00,30.24,32.30,34.34,5.76,32.38,1012.24,2036.16,3288.00,3220.01,3504.84,349.39,314.06,5.26,0000 0000 0000 0000 000000
2013-07-19 02:07:37,-0.01,0.35,0.00,30.23,32.30,34.35,6.03,33.08,1012.23,2036.24,3288.00,3220.00,3504.81,351.02,315.70,5.26,0000 0000 0000 0000 000000
2013-07-19 02:08:38,0.10,0.35,0.00,30.24,32.30,34.31,5.82,32.29,1012.23,2036.31,3288.00,3220.01,3504.85,349.74,314.64,5.27,0000 0000 0000 0000 000000
2013-07-19 02:09:38,0.00,0.35,0.00,30.23,32.30,34.34,5.90,32.92,1012.23,2036.29,3288.00,3220.00,3504.75,350.77,315.45,5.28,0000 0000 0000 0000 000000
2013-07-19 02:10:38,-0.01,0.35,0.00,30.24,32.30,34.39,5.79,33.00,1012.26,2036.23,3287.67,3219.83,3504.33,349.98,314.21,5.28,0000 0000 0000 0000 000000
2013-07-19 02:11:38,0.12,0.35,0.00,30.25,32.30,34.32,5.85,32.63,1012.23,2036.19,3287.29,3219.62,3504.11,350.37,314.87,5.29,0000 0000 0000 0000 000000
2013-07-19 02:12:38,0.08,0.35,0.00,30.28,32.30,34.31,5.89,32.83,1012.26,2036.17,3287.14,3219.47,3504.03,350.25,315.06,5.29,0000 0000 0000 0000 000000
2013-07-19 02:13:38,0.07,0.35,0.00,30.26,32.30,34.30,5.83,32.58,1012.24,2036.20,3287.09,3219.45,3504.00,350.02,314.89,5.30,0000 0000 0000 0000 000000
2013-07-19 02:14:38,0.03,0.35,0.00,30.24,32.31,34.37,5.83,32.38,1012.23,2036.19,3287.05,3219.32,3504.00,349.92,315.26,5.31,0000 0000 0000 0000 000000
2013-07-19 02:15:39,0.00,0.35,0.00,30.19,32.31,34.41,5.77,32.58,1012.23,2036.28,3287.01,3219.29,3504.00,350.02,315.33,5.31,0000 0000 0000 0000 000000
2013-07-19 02:16:39,0.07,0.35,0.00,30.19,32.31,34.45,5.73,31.83,1012.26,2036.36,3287.00,3219.28,3503.99,349.56,315.05,5.32,0000 0000 0000 0000 000000
2013-07-19 02:17:39,0.06,0.35,0.00,30.20,32.32,34.39,5.82,32.71,1012.25,2036.48,3287.02,3219.39,3503.99,349.52,315.49,5.32,0000 0000 0000 0000 000000
2013-07-19 02:18:39,0.08,0.35,0.00,30.22,32.32,34.34,5.96,32.92,1012.25,2036.59,3287.03,3219.51,3503.99,350.37,315.24,5.33,0000 0000 0000 0000 000000
2013-07-19 02:19:39,0.05,0.35,0.00,30.25,32.32,34.32,5.79,32.17,1012.28,2036.48,3287.01,3219.41,3503.99,349.40,313.98,5.33,0000 0000 0000 0000 000000
2013-07-19 02:20:40,-0.10,0.35,0.00,30.24,32.32,34.33,5.90,32.21,1012.27,2036.41,3287.00,3219.43,3503.99,349.14,314.50,5.34,0000 0000 0000 0000 000000
2013-07-19 02:21:40,-0.03,0.35,0.00,30.25,32.32,34.34,5.68,32.83,1012.31,2036.33,3287.00,3219.30,3503.99,349.62,314.25,5.35,0000 0000 0000 0000 000000
2013-07-19 02:22:40,-0.03,0.35,0.00,30.22,32.32,34.35,5.88,32.92,1012.28,2036.44,3287.00,3219.22,3503.99,350.29,314.88,5.35,0000 0000 0000 0000 000000
2013-07-19 02:23:40,0.11,0.35,0.00,30.18,32.32,34.36,5.86,32.25,1012.27,2036.41,3287.00,3219.13,3503.97,350.43,315.32,5.36,0000 0000 0000 0000 000000
2013-07-19 02:24:40,-0.01,0.35,0.00,30.21,32.32,34.39,5.82,31.96,1012.25,2036.43,3287.00,3219.12,3503.97,349.78,314.71,5.36,0000 0000 0000 0000 000000
2013-07-19 02:25:41,0.00,0.35,0.00,30.19,32.32,34.38,5.83,32.04,1012.26,2036.43,3287.00,3219.14,3503.97,349.74,314.69,5.37,0000 0000 0000 0000 000000
2013-07-19 02:26:41,0.02,0.35,0.00,30.20,32.32,34.32,5.87,32.50,1012.24,2036.43,3287.00,3219.13,3503.97,350.22,315.11,5.38,0000 0000 0000 0000 000000
2013-07-19 02:27:41,-0.01,0.35,0.00,30.17,32.32,34.32,5.82,32.25,1012.23,2036.39,3287.00,3219.10,3503.95,350.67,315.54,5.38,0000 0000 0000 0000 000000
2013-07-19 02:28:41,0.00,0.35,0.00,30.19,32.32,34.31,5.67,32.13,1012.23,2036.32,3287.00,3219.05,3503.91,349.64,314.60,5.39,0000 0000 0000 0000 000000
2013-07-19 02:29:41,-0.05,0.35,0.00,30.20,32.32,34.34,5.82,32.63,1012.22,2036.31,3287.00,3219.03,3503.85,349.95,314.87,5.39,0000 0000 0000 0000 000000
2013-07-19 02:30:41,0.00,0.35,0.00,30.19,32.33,34.31,5.85,32.88,1012.24,2036.29,3286.98,3219.02,3503.83,350.67,315.53,5.40,0000 0000 0000 0000 000000
2013-07-19 02:31:42,0.01,0.35,0.00,30.25,32.32,34.33,5.97,33.04,1012.23,2036.26,3286.99,3219.03,3503.77,350.18,315.55,5.40,0000 0000 0000 0000 000000
2013-07-19 02:32:42,-0.05,0.35,0.00,30.27,32.32,34.35,5.85,32.58,1012.22,2036.41,3286.77,3218.96,3503.47,350.77,315.26,5.41,0000 0000 0000 0000 000000
2013-07-19 02:33:42,0.26,0.36,0.00,30.28,32.32,34.34,5.85,32.96,1012.23,2036.31,3286.31,3218.45,3502.66,350.01,315.31,5.42,0000 0000 0000 0000 000000
2013-07-19 02:34:42,0.19,0.36,0.00,30.30,32.33,34.33,5.80,32.63,1012.22,2036.27,3286.11,3218.16,3502.24,350.78,315.29,5.42,0000 0000 0000 0000 000000
2013-07-19 02:35:43,0.08,0.36,0.00,30.32,32.33,34.33,5.72,32.17,1012.23,2036.25,3286.02,3218.05,3502.10,348.64,313.56,5.43,0000 0000 0000 0000 000000
2013-07-19 02:36:43,0.04,0.36,0.00,30.29,32.34,34.34,5.86,32.75,1012.23,2036.28,3285.99,3218.02,3502.04,350.42,315.19,5.43,0000 0000 0000 0000 000000